Location: Namasale
(1.5000°N, 32.6167°E)
Time: 09:02:07
(UTC+00:00)

SR - Pass Details

Date: 14 April 2021
Orbit: 573 x 882 km, 66.7° (Epoch: 16 May)

Event Time Altitude Azimuth Distance (km) Brightness Sun altitude
Rises 17:00:32 0° 338° (NNW) 3,278 ? -17.2°
Reaches altitude 10° 17:03:03 10° 338° (NNW) 2,304 ? -17.8°
Maximum altitude 17:08:18 81° 250° (WSW) 732 ? -19.1°
Enters shadow 17:12:05 17° 164° (SSE) 1,717 ? -20.0°
